Location: ???? ?????????
(31.1304°N, 31.7111°E)
Time: 17:57:06
(UTC+00:00)

Cosmos 2297 Rocket - Pass Details

Date: 29 October 2020
Orbit: 838 x 845 km, 71.0° (Epoch: 29 November)

Event Time Altitude Azimuth Distance (km) Brightness Sun altitude
Rises 15:53:07 0° 345° (NNW) 3,405 5.4 -10.5°
Reaches altitude 10° 15:55:38 10° 350° (N) 2,467 4.6 -11.0°
Maximum altitude 16:01:11 55° 68° (ENE) 1,006 2.3 -12.2°
Drops below altitude 10° 16:06:42 10° 145° (SE) 2,452 4.4 -13.3°
Sets 16:09:11 0° 150° (SSE) 3,383 5.1 -13.9°
